| time (UTC) | temp F | wind direction | speed MPH | gust MPH | rain 1hr in | rain 24hr in | rain mn in | humidity % | barometer mb |
| 20260510071153 | 71 | 182 | 2.0 | 2.0 | 0.00 | 0.00 | 0.00 | 94 | 1010.9 |
| 20260510070651 | 71 | 183 | 1.0 | 1.0 | 0.00 | 0.00 | 0.00 | 94 | 1011.1 |
| 20260510070148 | 71 | 195 | 2.0 | 2.0 | 0.00 | 0.00 | 0.00 | 94 | 1011.3 |
| 20260510065643 | 71 | 195 | 2.0 | 2.0 | 0.00 | 0.00 | 0.00 | 94 | 1011.0 |
| 20260510065139 | 71 | 197 | 2.0 | 2.0 | 0.00 | 0.00 | 0.00 | 94 | 1010.9 |
| 20260510064636 | 71 | 184 | 2.0 | 2.0 | 0.00 | 0.00 | 0.00 | 93 | 1011.3 |
| 20260510064133 | 71 | 169 | 3.0 | 3.0 | 0.00 | 0.00 | 0.00 | 93 | 1011.1 |
| 20260510063630 | 71 | 168 | 3.0 | 2.0 | 0.00 | 0.00 | 0.00 | 93 | 1011.1 |
| 20260510063127 | 71 | 141 | 2.0 | 1.0 | 0.00 | 0.00 | 0.00 | 93 | 1011.1 |
| 20260510062622 | 71 | 122 | 3.0 | 2.0 | 0.00 | 0.00 | 0.00 | 93 | 1011.6 |
| 20260510062118 | 72 | 139 | 3.0 | 3.0 | 0.00 | 0.00 | 0.00 | 93 | 1011.2 |
| 20260510061614 | 72 | 116 | 2.0 | 2.0 | 0.00 | 0.00 | 0.00 | 93 | 1011.7 |
| 20260510061112 | 72 | 105 | 2.0 | 2.0 | 0.00 | 0.00 | 0.00 | 93 | 1011.6 |
| 20260510060608 | 72 | 109 | 2.0 | 2.0 | 0.00 | 0.00 | 0.00 | 92 | 1011.8 |
| 20260510060105 | 72 | 123 | 3.0 | 3.0 | 0.00 | 0.00 | 0.00 | 92 | 1011.6 |
| 20260510055600 | 72 | 109 | 3.0 | 3.0 | 0.00 | 0.00 | 0.00 | 92 | 1011.9 |
| 20260510055059 | 72 | 105 | 3.0 | 5.0 | 0.00 | 0.00 | 0.00 | 92 | 1011.9 |
| 20260510054554 | 72 | 114 | 3.0 | 3.0 | 0.00 | 0.00 | 0.00 | 91 | 1011.9 |
| 20260510054050 | 72 | 112 | 3.0 | 3.0 | 0.00 | 0.00 | 0.00 | 91 | 1012.1 |
| 20260510053549 | 72 | 90 | 3.0 | 2.0 | 0.00 | 0.00 | 0.00 | 90 | 1011.9 |
| 20260510053047 | 72 | 97 | 4.0 | 5.0 | 0.00 | 0.00 | 0.00 | 90 | 1011.8 |
| 20260510052542 | 71 | 111 | 4.0 | 5.0 | 0.00 | 0.00 | 0.00 | 89 | 1011.7 |
| 20260510052039 | 71 | 84 | 5.0 | 5.0 | 0.00 | 0.00 | 0.00 | 88 | 1011.5 |
| 20260510051534 | 71 | 101 | 4.0 | 3.0 | 0.00 | 0.00 | 0.00 | 87 | 1011.9 |
| 20260510051031 | 71 | 93 | 3.0 | 3.0 | 0.00 | 0.00 | 0.00 | 86 | 1011.6 |
| 20260510050529 | 72 | 123 | 4.0 | 5.0 | 0.00 | 0.00 | 0.00 | 86 | 1011.5 |
| 20260510050026 | 72 | 102 | 2.0 | 2.0 | 0.00 | 0.01 | 0.01 | 86 | 1011.5 |
| 20260510045523 | 72 | 78 | 2.0 | 1.0 | 0.00 | 0.01 | 0.01 | 85 | 1011.3 |
| 20260510045018 | 72 | 121 | 2.0 | 2.0 | 0.00 | 0.01 | 0.01 | 86 | 1011.4 |
| 20260510044516 | 72 | 101 | 2.0 | 2.0 | 0.00 | 0.01 | 0.01 | 86 | 1011.1 |
| 20260510044013 | 72 | 167 | 3.0 | 2.0 | 0.00 | 0.01 | 0.01 | 85 | 1011.1 |
| 20260510043508 | 72 | 142 | 3.0 | 3.0 | 0.00 | 0.01 | 0.01 | 85 | 1011.3 |
| 20260510043003 | 72 | 111 | 4.0 | 5.0 | 0.00 | 0.01 | 0.01 | 84 | 1011.0 |
| 20260510042458 | 72 | 119 | 4.0 | 6.0 | 0.00 | 0.01 | 0.01 | 84 | 1011.2 |
| 20260510041953 | 72 | 98 | 3.0 | 5.0 | 0.00 | 0.01 | 0.01 | 84 | 1011.1 |
| 20260510041450 | 72 | 123 | 4.0 | 6.0 | 0.00 | 0.01 | 0.01 | 84 | 1011.5 |
| 20260510040948 | 72 | 136 | 4.0 | 3.0 | 0.00 | 0.01 | 0.01 | 83 | 1011.4 |
| 20260510040444 | 74 | 113 | 4.0 | 5.0 | 0.00 | 0.01 | 0.01 | 79 | 1011.3 |
| 20260510035940 | 74 | 94 | 2.0 | 2.0 | 0.00 | 0.01 | 0.01 | 78 | 1011.0 |
| 20260510035437 | 74 | 99 | 3.0 | 3.0 | 0.00 | 0.01 | 0.01 | 78 | 1010.7 |
| 20260510034936 | 74 | 136 | 4.0 | 5.0 | 0.00 | 0.01 | 0.01 | 79 | 1010.4 |
| 20260510034436 | 73 | 145 | 3.0 | 5.0 | 0.00 | 0.01 | 0.01 | 79 | 1010.4 |
| 20260510033931 | 74 | 194 | 5.0 | 5.0 | 0.00 | 0.01 | 0.01 | 78 | 1010.3 |
| 20260510033428 | 74 | 207 | 5.0 | 6.0 | 0.00 | 0.01 | 0.01 | 78 | 1009.8 |
| 20260510032925 | 74 | 214 | 4.0 | 3.0 | 0.00 | 0.01 | 0.01 | 77 | 1010.0 |
| 20260510032422 | 75 | 215 | 2.0 | 2.0 | 0.00 | 0.01 | 0.01 | 76 | 1010.0 |
| 20260510031917 | 75 | 217 | 4.0 | 5.0 | 0.00 | 0.01 | 0.01 | 77 | 1010.2 |
| 20260510031412 | 74 | 221 | 4.0 | 5.0 | 0.00 | 0.01 | 0.01 | 77 | 1009.9 |
| 20260510030907 | 75 | 214 | 3.0 | 2.0 | 0.00 | 0.01 | 0.01 | 76 | 1010.0 |
| 20260510030403 | 75 | 209 | 4.0 | 3.0 | 0.00 | 0.01 | 0.01 | 76 | 1010.0 |
| 20260510025901 | 75 | 184 | 3.0 | 3.0 | 0.00 | 0.01 | 0.01 | 76 | 1010.0 |
| 20260510025359 | 75 | 170 | 3.0 | 3.0 | 0.00 | 0.01 | 0.01 | 75 | 1009.9 |
| 20260510024856 | 75 | 178 | 3.0 | 3.0 | 0.00 | 0.01 | 0.01 | 75 | 1009.7 |
| 20260510024352 | 75 | 154 | 3.0 | 2.0 | 0.00 | 0.01 | 0.01 | 75 | 1009.8 |
| 20260510023848 | 76 | 150 | 3.0 | 3.0 | 0.00 | 0.01 | 0.01 | 74 | 1009.7 |
| 20260510023344 | 76 | 140 | 4.0 | 5.0 | 0.00 | 0.01 | 0.01 | 74 | 1009.7 |
| 20260510022842 | 76 | 136 | 5.0 | 6.0 | 0.00 | 0.01 | 0.01 | 74 | 1009.9 |
| 20260510022341 | 77 | 142 | 4.0 | 3.0 | 0.00 | 0.01 | 0.01 | 73 | 1009.6 |
| 20260510021840 | 77 | 156 | 4.0 | 5.0 | 0.00 | 0.01 | 0.01 | 72 | 1009.6 |
| 20260510021339 | 77 | 179 | 4.0 | 3.0 | 0.00 | 0.01 | 0.01 | 72 | 1009.4 |
| 20260510020834 | 78 | 187 | 3.0 | 3.0 | 0.00 | 0.01 | 0.01 | 71 | 1009.6 |
| 20260510020329 | 78 | 195 | 4.0 | 3.0 | 0.00 | 0.01 | 0.01 | 71 | 1009.5 |
| 20260510015825 | 78 | 147 | 3.0 | 3.0 | 0.00 | 0.01 | 0.01 | 72 | 1009.2 |
| 20260510015321 | 79 | 125 | 3.0 | 5.0 | 0.00 | 0.01 | 0.01 | 71 | 1009.5 |
| 20260510014816 | 79 | 85 | 2.0 | 5.0 | 0.00 | 0.01 | 0.01 | 71 | 1009.3 |
| 20260510014314 | 79 | 106 | 2.0 | 2.0 | 0.00 | 0.01 | 0.01 | 71 | 1009.2 |
| 20260510013810 | 79 | 154 | 4.0 | 5.0 | 0.00 | 0.01 | 0.01 | 71 | 1008.9 |
| 20260510013305 | 79 | 198 | 5.0 | 5.0 | 0.00 | 0.01 | 0.01 | 71 | 1008.4 |
| 20260510012801 | 80 | 179 | 3.0 | 3.0 | 0.00 | 0.01 | 0.01 | 71 | 1008.5 |
| 20260510012255 | 80 | 217 | 6.0 | 7.0 | 0.00 | 0.01 | 0.01 | 69 | 1008.2 |
| 20260510011755 | 80 | 192 | 6.0 | 7.0 | 0.00 | 0.01 | 0.01 | 68 | 1008.0 |
| 20260510011251 | 81 | 186 | 6.0 | 8.0 | 0.00 | 0.01 | 0.01 | 67 | 1008.1 |
| 20260510010748 | 81 | 191 | 7.0 | 8.0 | 0.00 | 0.01 | 0.01 | 65 | 1008.1 |
| 20260510010244 | 81 | 207 | 7.0 | 8.0 | 0.00 | 0.01 | 0.01 | 65 | 1008.2 |
| 20260510005742 | 82 | 194 | 6.0 | 7.0 | 0.00 | 0.01 | 0.01 | 64 | 1008.4 |
| 20260510005237 | 83 | 199 | 7.0 | 8.0 | 0.00 | 0.01 | 0.01 | 62 | 1008.4 |
| 20260510004736 | 83 | 180 | 7.0 | 8.0 | 0.00 | 0.01 | 0.01 | 62 | 1008.3 |
| 20260510004233 | 84 | 194 | 6.0 | 7.0 | 0.00 | 0.01 | 0.01 | 61 | 1008.4 |
| 20260510003731 | 85 | 180 | 5.0 | 7.0 | 0.00 | 0.01 | 0.01 | 61 | 1008.5 |
| 20260510003227 | 85 | 203 | 4.0 | 3.0 | 0.00 | 0.01 | 0.01 | 59 | 1008.6 |
| 20260510002725 | 86 | 209 | 4.0 | 5.0 | 0.00 | 0.01 | 0.01 | 57 | 1008.6 |
| 20260510002223 | 86 | 195 | 5.0 | 5.0 | 0.00 | 0.01 | 0.01 | 57 | 1008.4 |
| 20260510001720 | 87 | 191 | 5.0 | 6.0 | 0.00 | 0.01 | 0.01 | 57 | 1008.3 |
| 20260510001218 | 87 | 196 | 5.0 | 6.0 | 0.00 | 0.01 | 0.01 | 57 | 1008.3 |
| 20260510000714 | 87 | 174 | 7.0 | 7.0 | 0.00 | 0.01 | 0.01 | 56 | 1008.4 |
| 20260510000211 | 87 | 183 | 4.0 | 5.0 | 0.00 | 0.01 | 0.01 | 56 | 1008.3 |
| 20260509235708 | 87 | 164 | 6.0 | 7.0 | 0.00 | 0.01 | 0.01 | 54 | 1008.4 |
| 20260509235204 | 87 | 181 | 7.0 | 8.0 | 0.00 | 0.01 | 0.01 | 54 | 1008.4 |
| 20260509234701 | 87 | 184 | 7.0 | 7.0 | 0.00 | 0.01 | 0.01 | 55 | 1008.4 |
| 20260509234158 | 88 | 166 | 8.0 | 9.0 | 0.00 | 0.01 | 0.01 | 54 | 1008.3 |
| 20260509233656 | 88 | 174 | 6.0 | 7.0 | 0.00 | 0.01 | 0.01 | 54 | 1008.5 |
| 20260509233153 | 88 | 173 | 8.0 | 8.0 | 0.00 | 0.01 | 0.01 | 53 | 1008.4 |
| 20260509232649 | 88 | 144 | 7.0 | 8.0 | 0.00 | 0.01 | 0.01 | 53 | 1008.2 |
| 20260509232146 | 88 | 162 | 9.0 | 10.0 | 0.00 | 0.01 | 0.01 | 53 | 1008.3 |
| 20260509231643 | 88 | 151 | 8.0 | 9.0 | 0.00 | 0.01 | 0.01 | 53 | 1008.3 |
| 20260509231140 | 88 | 158 | 8.0 | 9.0 | 0.00 | 0.01 | 0.01 | 53 | 1008.1 |
| 20260509230637 | 89 | 150 | 10.0 | 11.0 | 0.00 | 0.01 | 0.01 | 52 | 1008.1 |
| 20260509230134 | 89 | 143 | 9.0 | 9.0 | 0.00 | 0.01 | 0.01 | 52 | 1007.8 |
| 20260509225630 | 91 | 167 | 9.0 | 9.0 | 0.00 | 0.01 | 0.01 | 50 | 1008.2 |
| 20260509225125 | 91 | 197 | 5.0 | 6.0 | 0.00 | 0.01 | 0.01 | 48 | 1008.1 |
| 20260509224620 | 91 | 178 | 6.0 | 7.0 | 0.00 | 0.01 | 0.01 | 49 | 1008.1 |
| 20260509224118 | 90 | 221 | 4.0 | 3.0 | 0.00 | 0.01 | 0.01 | 50 | 1007.9 |
| 20260509223615 | 90 | 153 | 4.0 | 5.0 | 0.00 | 0.01 | 0.01 | 50 | 1007.9 |
| 20260509223113 | 90 | 198 | 5.0 | 5.0 | 0.00 | 0.01 | 0.01 | 47 | 1008.1 |
| 20260509222608 | 91 | 171 | 4.0 | 5.0 | 0.00 | 0.01 | 0.01 | 50 | 1007.9 |
| 20260509222104 | 91 | 234 | 1.0 | 1.0 | 0.00 | 0.01 | 0.01 | 47 | 1008.0 |
| 20260509221600 | 91 | 175 | 5.0 | 6.0 | 0.00 | 0.01 | 0.01 | 49 | 1008.1 |
| 20260509221056 | 91 | 230 | 1.0 | 1.0 | 0.00 | 0.01 | 0.01 | 48 | 1008.0 |
| 20260509220552 | 91 | 187 | 3.0 | 3.0 | 0.00 | 0.01 | 0.01 | 49 | 1008.3 |
| 20260509220049 | 91 | 189 | 4.0 | 5.0 | 0.00 | 0.01 | 0.01 | 47 | 1008.1 |
| 20260509215544 | 90 | 229 | 2.0 | 2.0 | 0.00 | 0.01 | 0.01 | 50 | 1008.0 |
| 20260509215042 | 90 | 219 | 5.0 | 6.0 | 0.00 | 0.01 | 0.01 | 49 | 1008.1 |
| 20260509214539 | 91 | 187 | 5.0 | 6.0 | 0.00 | 0.01 | 0.01 | 50 | 1008.2 |
| 20260509214036 | 92 | 333 | 1.0 | 1.0 | 0.00 | 0.01 | 0.01 | 50 | 1008.2 |
| 20260509213532 | 92 | 291 | 1.0 | 1.0 | 0.00 | 0.01 | 0.01 | 48 | 1008.2 |
| 20260509213029 | 92 | 315 | 2.0 | 2.0 | 0.00 | 0.01 | 0.01 | 48 | 1008.2 |
| 20260509212526 | 93 | 323 | 1.0 | 1.0 | 0.00 | 0.01 | 0.01 | 48 | 1008.2 |
| 20260509212023 | 92 | 342 | 0.0 | 0.0 | 0.00 | 0.01 | 0.01 | 48 | 1008.1 |
| 20260509211518 | 92 | 338 | 1.0 | 1.0 | 0.00 | 0.01 | 0.01 | 48 | 1008.0 |
| 20260509211016 | 92 | 103 | 3.0 | 2.0 | 0.00 | 0.01 | 0.01 | 48 | 1008.0 |
| 20260509210512 | 92 | 210 | 2.0 | 2.0 | 0.00 | 0.01 | 0.01 | 50 | 1008.2 |
| 20260509210008 | 92 | 258 | 3.0 | 2.0 | 0.00 | 0.01 | 0.01 | 48 | 1008.2 |
| 20260509205503 | 91 | 321 | 3.0 | 2.0 | 0.00 | 0.01 | 0.01 | 49 | 1008.3 |
| 20260509204958 | 92 | 69 | 2.0 | 2.0 | 0.00 | 0.01 | 0.01 | 50 | 1008.3 |
| 20260509204455 | 91 | 319 | 1.0 | 2.0 | 0.00 | 0.01 | 0.01 | 52 | 1008.2 |
| 20260509203951 | 91 | 276 | 3.0 | 3.0 | 0.00 | 0.01 | 0.01 | 50 | 1008.3 |
| 20260509203447 | 90 | 207 | 3.0 | 3.0 | 0.00 | 0.01 | 0.01 | 51 | 1008.4 |
| 20260509202945 | 90 | 326 | 2.0 | 2.0 | 0.00 | 0.01 | 0.01 | 52 | 1008.6 |
| 20260509202441 | 91 | 282 | 4.0 | 5.0 | 0.00 | 0.01 | 0.01 | 51 | 1008.7 |
| 20260509201936 | 91 | 316 | 3.0 | 3.0 | 0.00 | 0.01 | 0.01 | 53 | 1008.7 |
| 20260509201431 | 91 | 318 | 2.0 | 2.0 | 0.00 | 0.01 | 0.01 | 53 | 1008.5 |
| 20260509200929 | 89 | 291 | 0.0 | 0.0 | 0.00 | 0.01 | 0.01 | 56 | 1008.6 |
| 20260509200428 | 90 | 92 | 3.0 | 5.0 | 0.00 | 0.01 | 0.01 | 54 | 1008.7 |
| 20260509195926 | 90 | 41 | 2.0 | 2.0 | 0.00 | 0.01 | 0.01 | 54 | 1008.8 |
| 20260509195421 | 89 | 327 | 2.0 | 1.0 | 0.00 | 0.01 | 0.01 | 55 | 1008.9 |
| 20260509194920 | 89 | 299 | 2.0 | 2.0 | 0.00 | 0.01 | 0.01 | 58 | 1008.9 |
| 20260509194417 | 89 | 84 | 4.0 | 5.0 | 0.00 | 0.01 | 0.01 | 55 | 1008.9 |
| 20260509193914 | 88 | 77 | 3.0 | 3.0 | 0.00 | 0.01 | 0.01 | 56 | 1009.0 |
| 20260509193413 | 87 | 100 | 7.0 | 7.0 | 0.00 | 0.01 | 0.01 | 57 | 1008.9 |
| 20260509192909 | 88 | 119 | 5.0 | 6.0 | 0.00 | 0.01 | 0.01 | 58 | 1009.2 |
| 20260509192406 | 89 | 311 | 1.0 | 2.0 | 0.00 | 0.01 | 0.01 | 56 | 1009.2 |
| 20260509191901 | 88 | 267 | 1.0 | 2.0 | 0.00 | 0.01 | 0.01 | 57 | 1009.2 |
| 20260509191357 | 88 | 282 | 1.0 | 1.0 | 0.00 | 0.01 | 0.01 | 56 | 1009.1 |
| 20260509190853 | 87 | 238 | 2.0 | 2.0 | 0.00 | 0.01 | 0.01 | 58 | 1009.4 |
| 20260509190350 | 88 | 248 | 4.0 | 5.0 | 0.00 | 0.01 | 0.01 | 57 | 1009.4 |
| 20260509185848 | 87 | 24 | 2.0 | 2.0 | 0.00 | 0.01 | 0.01 | 58 | 1009.6 |
| 20260509185344 | 88 | 278 | 1.0 | 1.0 | 0.00 | 0.01 | 0.01 | 59 | 1009.5 |
| 20260509184842 | 88 | 296 | 2.0 | 3.0 | 0.00 | 0.01 | 0.01 | 58 | 1009.5 |
| 20260509184339 | 88 | 301 | 3.0 | 3.0 | 0.00 | 0.01 | 0.01 | 59 | 1009.5 |
| 20260509183835 | 88 | 308 | 2.0 | 2.0 | 0.00 | 0.01 | 0.01 | 59 | 1009.4 |
| 20260509183330 | 87 | 60 | 1.0 | 1.0 | 0.00 | 0.01 | 0.01 | 57 | 1009.5 |
| 20260509182827 | 87 | 70 | 2.0 | 2.0 | 0.00 | 0.01 | 0.01 | 56 | 1009.7 |
| 20260509182324 | 87 | 4 | 1.0 | 1.0 | 0.00 | 0.01 | 0.01 | 61 | 1009.7 |
| 20260509181821 | 87 | 336 | 1.0 | 1.0 | 0.00 | 0.01 | 0.01 | 59 | 1009.7 |
| 20260509181318 | 87 | 316 | 1.0 | 1.0 | 0.00 | 0.01 | 0.01 | 62 | 1009.8 |
| 20260509180815 | 87 | 293 | 4.0 | 3.0 | 0.00 | 0.01 | 0.01 | 61 | 1009.8 |
| 20260509180312 | 87 | 295 | 3.0 | 3.0 | 0.00 | 0.01 | 0.01 | 60 | 1010.1 |
| 20260509175808 | 87 | 278 | 4.0 | 5.0 | 0.00 | 0.01 | 0.01 | 59 | 1010.1 |
| 20260509175306 | 86 | 325 | 2.0 | 2.0 | 0.00 | 0.01 | 0.01 | 61 | 1010.2 |
| 20260509174801 | 86 | 286 | 2.0 | 1.0 | 0.00 | 0.01 | 0.01 | 60 | 1010.2 |
| 20260509174256 | 86 | 315 | 2.0 | 2.0 | 0.00 | 0.01 | 0.01 | 60 | 1010.3 |
| 20260509173752 | 86 | 314 | 3.0 | 3.0 | 0.00 | 0.01 | 0.01 | 62 | 1010.2 |
| 20260509173248 | 86 | 319 | 3.0 | 5.0 | 0.00 | 0.01 | 0.01 | 63 | 1010.7 |
| 20260509172744 | 86 | 299 | 1.0 | 1.0 | 0.00 | 0.01 | 0.01 | 66 | 1010.4 |
| 20260509172241 | 85 | 330 | 2.0 | 2.0 | 0.00 | 0.01 | 0.01 | 65 | 1010.3 |
| 20260509171736 | 84 | 317 | 2.0 | 2.0 | 0.00 | 0.01 | 0.01 | 67 | 1010.5 |
| 20260509171233 | 85 | 303 | 5.0 | 6.0 | 0.00 | 0.01 | 0.01 | 66 | 1010.4 |
| 20260509170730 | 85 | 308 | 3.0 | 2.0 | 0.00 | 0.01 | 0.01 | 67 | 1010.6 |
| 20260509170226 | 85 | 285 | 1.0 | 1.0 | 0.00 | 0.01 | 0.01 | 69 | 1010.5 |
| 20260509165724 | 84 | 337 | 1.0 | 2.0 | 0.00 | 0.01 | 0.01 | 71 | 1010.3 |
| 20260509165220 | 84 | 289 | 0.0 | 0.0 | 0.00 | 0.01 | 0.01 | 75 | 1010.3 |
| 20260509164716 | 84 | 308 | 2.0 | 3.0 | 0.00 | 0.01 | 0.01 | 73 | 1010.1 |
| 20260509164212 | 83 | 343 | 4.0 | 5.0 | 0.00 | 0.01 | 0.01 | 74 | 1010.3 |
| 20260509163709 | 82 | 353 | 1.0 | 1.0 | 0.00 | 0.01 | 0.01 | 78 | 1010.3 |
| 20260509163206 | 81 | 85 | 2.0 | 5.0 | 0.00 | 0.01 | 0.01 | 79 | 1010.1 |
| 20260509162703 | 81 | 36 | 2.0 | 3.0 | 0.00 | 0.01 | 0.01 | 79 | 1010.6 |
| 20260509162159 | 80 | 324 | 1.0 | 1.0 | 0.00 | 0.01 | 0.01 | 80 | 1010.3 |
| 20260509161654 | 80 | 330 | 2.0 | 3.0 | 0.00 | 0.01 | 0.01 | 79 | 1010.5 |
| 20260509161150 | 80 | 355 | 1.0 | 1.0 | 0.00 | 0.01 | 0.01 | 81 | 1010.3 |
| 20260509160646 | 80 | 335 | 1.0 | 1.0 | 0.00 | 0.01 | 0.01 | 82 | 1010.8 |
| 20260509160141 | 79 | 316 | 2.0 | 3.0 | 0.00 | 0.01 | 0.01 | 83 | 1010.4 |
| 20260509155638 | 79 | 296 | 2.0 | 2.0 | 0.00 | 0.01 | 0.01 | 84 | 1010.6 |
| 20260509155134 | 79 | 326 | 1.0 | 1.0 | 0.00 | 0.01 | 0.01 | 85 | 1010.6 |
| 20260509154630 | 78 | 358 | 1.0 | 1.0 | 0.00 | 0.01 | 0.01 | 87 | 1010.6 |
| 20260509154127 | 78 | 278 | 1.0 | 1.0 | 0.00 | 0.01 | 0.01 | 88 | 1010.5 |
| 20260509153625 | 77 | 193 | 1.0 | 1.0 | 0.00 | 0.01 | 0.01 | 88 | 1010.5 |
| 20260509153121 | 77 | 192 | 3.0 | 2.0 | 0.00 | 0.01 | 0.01 | 90 | 1010.8 |
| 20260509152617 | 77 | 111 | 1.0 | 1.0 | 0.00 | 0.01 | 0.01 | 90 | 1010.6 |
| 20260509152115 | 77 | 106 | 4.0 | 5.0 | 0.00 | 0.01 | 0.01 | 91 | 1010.4 |
| 20260509151611 | 77 | 151 | 4.0 | 5.0 | 0.00 | 0.01 | 0.01 | 90 | 1010.3 |
| 20260509151109 | 77 | 182 | 7.0 | 8.0 | 0.00 | 0.01 | 0.01 | 90 | 1009.8 |
| 20260509150606 | 77 | 181 | 4.0 | 5.0 | 0.00 | 0.01 | 0.01 | 90 | 1010.0 |
| 20260509150104 | 77 | 198 | 3.0 | 3.0 | 0.00 | 0.01 | 0.01 | 90 | 1009.9 |
| 20260509145559 | 77 | 207 | 1.0 | 1.0 | 0.00 | 0.01 | 0.01 | 90 | 1010.3 |
| 20260509145055 | 77 | 200 | 2.0 | 2.0 | 0.00 | 0.01 | 0.01 | 90 | 1010.1 |
| 20260509144552 | 77 | 204 | 3.0 | 3.0 | 0.00 | 0.01 | 0.01 | 90 | 1010.1 |
| 20260509144049 | 76 | 229 | 1.0 | 1.0 | 0.00 | 0.01 | 0.01 | 90 | 1010.6 |
| 20260509143546 | 77 | 228 | 3.0 | 2.0 | 0.00 | 0.01 | 0.01 | 90 | 1010.5 |
| 20260509143044 | 76 | 233 | 3.0 | 2.0 | 0.00 | 0.01 | 0.01 | 90 | 1010.1 |
| 20260509142539 | 76 | 288 | 1.0 | 1.0 | 0.00 | 0.01 | 0.01 | 91 | 1010.3 |
| 20260509142035 | 76 | 306 | 1.0 | 1.0 | 0.00 | 0.01 | 0.01 | 91 | 1010.3 |
| 20260509141532 | 76 | 265 | 3.0 | 3.0 | 0.00 | 0.01 | 0.01 | 91 | 1010.1 |
| 20260509141029 | 76 | 251 | 5.0 | 6.0 | 0.00 | 0.01 | 0.01 | 91 | 1009.8 |
| 20260509140525 | 76 | 267 | 3.0 | 2.0 | 0.00 | 0.01 | 0.01 | 91 | 1009.6 |
| 20260509140023 | 76 | 281 | 3.0 | 3.0 | 0.00 | 0.01 | 0.01 | 91 | 1009.5 |
| 20260509135520 | 76 | 281 | 3.0 | 3.0 | 0.00 | 0.01 | 0.01 | 91 | 1009.5 |
| 20260509135018 | 75 | 44 | 1.0 | 1.0 | 0.00 | 0.01 | 0.01 | 92 | 1009.4 |
| 20260509134515 | 75 | 45 | 1.0 | 1.0 | 0.00 | 0.01 | 0.01 | 92 | 1009.7 |
| 20260509134012 | 75 | 15 | 1.0 | 1.0 | 0.00 | 0.01 | 0.01 | 92 | 1009.7 |
| 20260509133509 | 75 | 320 | 1.0 | 1.0 | 0.00 | 0.01 | 0.01 | 92 | 1009.7 |
| 20260509133007 | 75 | 281 | 0.0 | 0.0 | 0.00 | 0.01 | 0.01 | 92 | 1010.1 |
| 20260509132505 | 75 | 6 | 2.0 | 3.0 | 0.00 | 0.01 | 0.01 | 93 | 1010.1 |
| 20260509132002 | 75 | 327 | 2.0 | 2.0 | 0.00 | 0.01 | 0.01 | 92 | 1010.3 |
| 20260509131459 | 75 | 28 | 2.0 | 2.0 | 0.00 | 0.01 | 0.01 | 92 | 1009.7 |
| 20260509130955 | 75 | 314 | 3.0 | 5.0 | 0.00 | 0.01 | 0.01 | 93 | 1009.5 |
| 20260509130450 | 75 | 333 | 1.0 | 2.0 | 0.00 | 0.01 | 0.01 | 93 | 1009.6 |
| 20260509125948 | 75 | 319 | 2.0 | 2.0 | 0.00 | 0.01 | 0.01 | 94 | 1010.0 |
| 20260509125444 | 74 | 342 | 5.0 | 8.0 | 0.00 | 0.01 | 0.01 | 94 | 1009.7 |
| 20260509124940 | 74 | 326 | 6.0 | 9.0 | 0.00 | 0.01 | 0.01 | 95 | 1010.0 |
| 20260509124438 | 74 | 16 | 4.0 | 6.0 | 0.00 | 0.01 | 0.01 | 95 | 1008.9 |
| 20260509123935 | 74 | 171 | 11.0 | 13.0 | 0.00 | 0.01 | 0.01 | 95 | 1008.7 |
| 20260509123432 | 74 | 135 | 18.0 | 21.0 | 0.00 | 0.01 | 0.01 | 96 | 1008.2 |
| 20260509122928 | 74 | 154 | 22.0 | 24.0 | 0.00 | 0.01 | 0.01 | 97 | 1008.1 |
| 20260509122425 | 75 | 134 | 17.0 | 18.0 | 0.00 | 0.01 | 0.01 | 98 | 1008.0 |
| 20260509121922 | 75 | 133 | 11.0 | 11.0 | 0.00 | 0.01 | 0.01 | 98 | 1008.9 |
| 20260509121419 | 75 | 129 | 8.0 | 8.0 | 0.00 | 0.01 | 0.01 | 98 | 1009.8 |
| 20260509120917 | 75 | 134 | 10.0 | 11.0 | 0.00 | 0.01 | 0.01 | 98 | 1009.9 |
| 20260509120414 | 75 | 134 | 7.0 | 9.0 | 0.00 | 0.01 | 0.01 | 98 | 1010.2 |
| 20260509115912 | 75 | 171 | 6.0 | 6.0 | 0.00 | 0.01 | 0.01 | 98 | 1010.3 |
| 20260509115409 | 75 | 207 | 6.0 | 8.0 | 0.00 | 0.01 | 0.01 | 98 | 1010.5 |
| 20260509114907 | 75 | 129 | 9.0 | 9.0 | 0.05 | 0.01 | 0.01 | 98 | 1010.6 |
| 20260509114405 | 75 | 157 | 5.0 | 6.0 | 0.05 | 0.01 | 0.01 | 98 | 1010.9 |
| 20260509113905 | 75 | 203 | 5.0 | 5.0 | 0.00 | 0.00 | 0.00 | 98 | 1010.7 |
| 20260509113401 | 75 | 183 | 8.0 | 9.0 | 0.00 | 0.00 | 0.00 | 98 | 1010.3 |
| 20260509112857 | 74 | 187 | 8.0 | 8.0 | 0.00 | 0.00 | 0.00 | 98 | 1010.6 |
| 20260509112355 | 74 | 247 | 0.0 | 1.0 | 0.00 | 0.00 | 0.00 | 98 | 1010.7 |
| 20260509111852 | 74 | 114 | 1.0 | 1.0 | 0.00 | 0.00 | 0.00 | 98 | 1010.5 |
| 20260509111348 | 74 | 86 | 1.0 | 1.0 | 0.00 | 0.00 | 0.00 | 98 | 1010.3 |
| 20260509110847 | 74 | 181 | 5.0 | 6.0 | 0.00 | 0.00 | 0.00 | 98 | 1009.8 |
| 20260509110342 | 74 | 181 | 5.0 | 5.0 | 0.00 | 0.00 | 0.00 | 98 | 1009.9 |
| 20260509105841 | 74 | 179 | 4.0 | 5.0 | 0.00 | 0.00 | 0.00 | 98 | 1010.0 |
| 20260509105339 | 74 | 171 | 4.0 | 3.0 | 0.00 | 0.00 | 0.00 | 98 | 1009.9 |
| 20260509104835 | 74 | 263 | 3.0 | 2.0 | 0.00 | 0.00 | 0.00 | 98 | 1010.1 |
| 20260509104332 | 74 | 265 | 0.0 | 0.0 | 0.00 | 0.00 | 0.00 | 97 | 1010.1 |
| 20260509103830 | 74 | 265 | 0.0 | 0.0 | 0.00 | 0.00 | 0.00 | 97 | 1010.0 |
| 20260509103327 | 74 | 265 | 0.0 | 0.0 | 0.00 | 0.00 | 0.00 | 98 | 1009.9 |
| 20260509102826 | 74 | 265 | 1.0 | 1.0 | 0.00 | 0.00 | 0.00 | 98 | 1009.9 |
| 20260509102322 | 74 | 264 | 1.0 | 1.0 | 0.00 | 0.00 | 0.00 | 98 | 1009.9 |
| 20260509101818 | 74 | 130 | 0.0 | 0.0 | 0.00 | 0.00 | 0.00 | 98 | 1009.7 |
| 20260509101314 | 74 | 87 | 1.0 | 1.0 | 0.00 | 0.00 | 0.00 | 98 | 1009.4 |
| 20260509100813 | 74 | 175 | 0.0 | 0.0 | 0.00 | 0.00 | 0.00 | 97 | 1009.3 |
| 20260509100309 | 74 | 178 | 1.0 | 1.0 | 0.00 | 0.00 | 0.00 | 97 | 1009.4 |
| 20260509095806 | 74 | 169 | 3.0 | 2.0 | 0.00 | 0.00 | 0.00 | 97 | 1009.5 |
| 20260509095306 | 74 | 344 | 0.0 | 0.0 | 0.00 | 0.00 | 0.00 | 97 | 1009.7 |
| 20260509094800 | 74 | 344 | 0.0 | 0.0 | 0.00 | 0.00 | 0.00 | 97 | 1009.8 |
| 20260509094257 | 74 | 344 | 0.0 | 0.0 | 0.00 | 0.00 | 0.00 | 97 | 1009.8 |
| 20260509093755 | 74 | 344 | 0.0 | 0.0 | 0.00 | 0.00 | 0.00 | 97 | 1009.7 |
| 20260509093252 | 75 | 343 | 0.0 | 0.0 | 0.00 | 0.00 | 0.00 | 97 | 1009.5 |
| 20260509092750 | 75 | 149 | 0.0 | 0.0 | 0.00 | 0.00 | 0.00 | 97 | 1009.3 |
| 20260509092247 | 75 | 162 | 2.0 | 2.0 | 0.00 | 0.00 | 0.00 | 97 | 1009.0 |
| 20260509091745 | 74 | 160 | 4.0 | 5.0 | 0.00 | 0.00 | 0.00 | 97 | 1009.2 |
| 20260509091241 | 75 | 171 | 4.0 | 5.0 | 0.00 | 0.00 | 0.00 | 97 | 1009.0 |
| 20260509090739 | 75 | 176 | 3.0 | 3.0 | 0.00 | 0.00 | 0.00 | 97 | 1008.8 |
| 20260509090236 | 75 | 146 | 3.0 | 3.0 | 0.00 | 0.00 | 0.00 | 97 | 1008.6 |
| 20260509085734 | 75 | 128 | 4.0 | 5.0 | 0.00 | 0.00 | 0.00 | 97 | 1008.8 |
| 20260509085231 | 75 | 147 | 4.0 | 5.0 | 0.00 | 0.00 | 0.00 | 97 | 1008.5 |
| 20260509084727 | 75 | 158 | 4.0 | 5.0 | 0.00 | 0.00 | 0.00 | 97 | 1008.4 |
| 20260509084224 | 75 | 152 | 5.0 | 6.0 | 0.00 | 0.00 | 0.00 | 97 | 1008.7 |
| 20260509083722 | 74 | 147 | 5.0 | 7.0 | 0.00 | 0.00 | 0.00 | 97 | 1008.8 |
| 20260509083219 | 74 | 160 | 4.0 | 3.0 | 0.00 | 0.00 | 0.00 | 97 | 1008.7 |
| 20260509082715 | 74 | 148 | 4.0 | 5.0 | 0.00 | 0.00 | 0.00 | 97 | 1008.9 |
| 20260509082212 | 74 | 151 | 4.0 | 5.0 | 0.00 | 0.00 | 0.00 | 97 | 1009.0 |
| 20260509081709 | 74 | 141 | 5.0 | 5.0 | 0.00 | 0.00 | 0.00 | 97 | 1009.1 |
| 20260509081206 | 74 | 165 | 6.0 | 7.0 | 0.00 | 0.00 | 0.00 | 97 | 1009.3 |
| 20260509080704 | 74 | 176 | 7.0 | 7.0 | 0.00 | 0.00 | 0.00 | 97 | 1009.1 |
| 20260509080202 | 74 | 164 | 7.0 | 8.0 | 0.00 | 0.00 | 0.00 | 96 | 1009.2 |
| 20260509075700 | 74 | 158 | 6.0 | 6.0 | 0.00 | 0.00 | 0.00 | 96 | 1009.4 |
| 20260509075157 | 74 | 153 | 4.0 | 5.0 | 0.00 | 0.00 | 0.00 | 96 | 1009.5 |
| 20260509074654 | 74 | 165 | 4.0 | 3.0 | 0.00 | 0.00 | 0.00 | 96 | 1009.9 |
| 20260509074150 | 74 | 155 | 2.0 | 2.0 | 0.00 | 0.00 | 0.00 | 96 | 1009.8 |
| 20260509073647 | 75 | 118 | 1.0 | 1.0 | 0.00 | 0.00 | 0.00 | 96 | 1009.8 |
| 20260509073144 | 75 | 46 | 1.0 | 1.0 | 0.00 | 0.00 | 0.00 | 96 | 1009.9 |
| 20260509072641 | 75 | 36 | 1.0 | 1.0 | 0.00 | 0.00 | 0.00 | 96 | 1009.9 |
| 20260509072137 | 75 | 15 | 1.0 | 1.0 | 0.00 | 0.00 | 0.00 | 96 | 1010.1 |
| 20260509071634 | 74 | 15 | 0.0 | 0.0 | 0.00 | 0.00 | 0.00 | 96 | 1010.0 |